Location: Caltech
(34.1382°N, 118.1253°W)
Time: 22:16:58
(UTC-07:00)

JAS-1B - Visible Passes

Search period start: 29 June 2015 00:00
Search period end: 09 July 2015 00:00
Orbit: 912 x 1744 km, 99.1° (Epoch: 29 June)

Date Brightness Start Highest point End Pass type
(mag) Time Alt. Az. Time Alt. Az. Time Alt. Az.
29 Jun 9.5 01:50:38 10° NNW 01:54:28 14° NW 01:57:37 10° W visible
29 Jun 8.8 22:27:50 10° NE 22:32:35 19° E 22:32:42 19° E visible
30 Jun 7.5 00:16:28 10° N 00:24:11 62° WNW 00:24:56 59° W visible
30 Jun 8.4 22:45:59 10° NE 22:51:56 27° E 22:51:56 27° E visible
01 Jul 8.0 00:35:47 10° N 00:43:03 44° WNW 00:44:11 41° W visible
01 Jul 7.9 23:04:31 10° NNE 23:11:11 39° E 23:11:11 39° E visible
02 Jul 8.5 00:55:14 10° N 01:01:51 32° WNW 01:03:26 28° W visible
02 Jul 7.5 23:23:17 10° NNE 23:30:25 55° E 23:30:25 55° E visible
03 Jul 9.0 01:14:54 10° NNW 01:20:34 23° WNW 01:22:40 19° W visible
03 Jul 7.1 23:42:13 10° NNE 23:49:39 78° E 23:49:39 78° E visible
04 Jul 9.3 01:34:56 10° NNW 01:39:14 16° WNW 01:41:54 12° W visible
04 Jul 9.0 22:13:53 10° ENE 22:16:38 13° E 22:16:38 13° E visible
05 Jul 7.2 00:01:18 10° N 00:08:41 75° WNW 00:08:54 74° W visible
05 Jul 9.6 01:56:10 10° NW 01:57:50 11° NW 01:58:57 10° WNW visible
05 Jul 8.7 22:31:26 10° NE 22:35:52 20° E 22:35:52 20° E visible
06 Jul 7.6 00:20:31 10° N 00:27:36 53° WNW 00:28:07 51° W visible
06 Jul 8.2 22:49:41 10° NE 22:55:06 29° E 22:55:06 29° E visible
07 Jul 8.2 00:39:53 10° N 00:46:26 37° WNW 00:47:21 35° W visible
07 Jul 7.7 23:08:17 10° NNE 23:14:19 42° E 23:14:19 42° E visible
08 Jul 8.7 00:59:26 10° N 01:05:12 26° WNW 01:06:34 24° W visible
08 Jul 7.3 23:27:06 10° NNE 23:33:32 60° ENE 23:33:32 60° ENE visible
